Weather History for Crockett, TX

Change the Weather History Date:

Saturday, December 1, 2012

  Actual Average (KLFK) Record (KLFK)
Temperature  
Mean Temperature 72 °F 53 °F  
Max Temperature 80 °F 64 °F 87 °F (1945)
Min Temperature 64 °F 42 °F 22 °F (1911)
Degree Days  
Heating Degree Days 0 12  
Month to date heating degree days 12  
Since 1 July heating degree days 319  
Cooling Degree Days 7 1  
Month to date cooling degree days 1  
Year to date cooling degree days 2584  
Growing Degree Days 22 (Base 50)    
Moisture  
Dew Point 63 °F    
Average Humidity 77    
Maximum Humidity 94    
Minimum Humidity 51    
Precipitation  
Precipitation 0.00 in 0.16 in 1.95 in (1931)
Month to date precipitation 0.16  
Year to date precipitation 44.67  
Snow  
Snow 0.00 in - - ()
Since 1 July snowfall  
Snow Depth -    
Sea Level Pressure  
Sea Level Pressure 30.12 in    
Wind  
Wind Speed 7 mph (SSE)    
Max Wind Speed 16 mph    
Max Gust Speed 22 mph    
Visibility 10 miles    
Events      
T = Trace of Precipitation, MM = Missing Value Source: NWS Daily Summary

Daily Weather History Graph

Daily Weather History Graph

Search for Another Location

Airport:

Trip Planner

Search our weather history database for the weather conditions in past years. The results will help you decide how hot, cold, wet, or windy it might be!

Date:

Astronomy

Dec. 01, 2012 Rise Set
Actual Time 7:03 AM CST 5:18 PM CST
Civil Twilight 6:36 AM CST 5:44 PM CST
Nautical Twilight 6:06 AM CST 6:14 PM CST
Astronomical Twilight 5:37 AM CST 6:44 PM CST
Moon 8:06 PM CST (12/1) 9:18 AM CST (12/1)
Length of Visible Light 11h 08m
Length of Day
10h 15m
Waning Gibbous, 91% of the Moon is Illuminated
Dec 1
Waning Gibbous
Dec 6
Last Quarter
Dec 13
New
Dec 19
First Quarter
Dec 28
Full

Hourly Weather History & Observations

Time (CST) Temp. Heat Index Dew Point Humidity Pressure Visibility Wind Dir Wind Speed Gust Speed Precip Events Conditions
12:15 AM 64.4 °F - 62.6 °F 94% 30.15 in 10.0 mi SSE 8.1 mph - N/A   Light Drizzle
12:35 AM 64.4 °F - 62.6 °F 94% 30.15 in 10.0 mi SSE 6.9 mph - N/A   Mostly Cloudy
12:55 AM 64.4 °F - 62.6 °F 94% 30.15 in 10.0 mi SSE 4.6 mph - N/A   Scattered Clouds
1:15 AM 64.4 °F - 62.6 °F 94% 30.15 in 10.0 mi Calm Calm - N/A   Mostly Cloudy
1:35 AM 64.4 °F - 62.6 °F 94% 30.15 in 10.0 mi SSE 4.6 mph - N/A   Overcast
1:55 AM 64.4 °F - 62.6 °F 94% 30.15 in 10.0 mi SSE 3.5 mph - N/A   Mostly Cloudy
2:15 AM 64.4 °F - 60.8 °F 88% 30.15 in 10.0 mi SSE 5.8 mph - N/A   Mostly Cloudy
2:35 AM 64.4 °F - 60.8 °F 88% 30.15 in 10.0 mi Calm Calm - N/A   Overcast
2:55 AM 64.4 °F - 60.8 °F 88% 30.15 in 10.0 mi SSE 8.1 mph - N/A   Light Drizzle
3:15 AM 64.4 °F - 60.8 °F 88% 30.15 in 10.0 mi SSE 6.9 mph - N/A   Light Drizzle
3:35 AM 64.4 °F - 60.8 °F 88% 30.15 in 10.0 mi SSE 4.6 mph - N/A   Light Drizzle
3:55 AM 64.4 °F - 60.8 °F 88% 30.14 in 10.0 mi Calm Calm - N/A   Mostly Cloudy
4:15 AM 64.4 °F - 60.8 °F 88% 30.14 in 10.0 mi SSE 4.6 mph - N/A   Mostly Cloudy
4:35 AM 64.4 °F - 60.8 °F 88% 30.14 in 10.0 mi SSE 4.6 mph - N/A   Light Drizzle
4:55 AM 64.4 °F - 60.8 °F 88% 30.14 in 10.0 mi SSE 5.8 mph - N/A   Light Drizzle
5:15 AM 64.4 °F - 60.8 °F 88% 30.14 in 10.0 mi SSE 9.2 mph - N/A   Light Drizzle
5:35 AM 64.4 °F - 60.8 °F 88% 30.15 in 10.0 mi SSE 3.5 mph - N/A   Light Drizzle
5:55 AM 64.4 °F - 60.8 °F 88% 30.15 in 10.0 mi SSE 6.9 mph - N/A   Light Drizzle
6:15 AM 64.4 °F - 60.8 °F 88% 30.15 in 10.0 mi SSE 5.8 mph - N/A   Light Drizzle
6:35 AM 64.4 °F - 60.8 °F 88% 30.15 in 10.0 mi Calm Calm - N/A   Overcast
6:55 AM 64.4 °F - 60.8 °F 88% 30.16 in 10.0 mi Calm Calm - N/A   Overcast
7:15 AM 64.4 °F - 60.8 °F 88% 30.16 in 10.0 mi SSE 6.9 mph - N/A   Light Drizzle
7:35 AM 64.4 °F - 62.6 °F 94% 30.17 in 10.0 mi SSE 6.9 mph - N/A   Light Drizzle
7:55 AM 66.2 °F - 62.6 °F 88% 30.17 in 10.0 mi South 8.1 mph - N/A   Light Drizzle
8:15 AM 66.2 °F - 62.6 °F 88% 30.17 in 10.0 mi South 5.8 mph - N/A   Overcast
8:35 AM 66.2 °F - 62.6 °F 88% 30.18 in 10.0 mi South 9.2 mph - N/A   Light Drizzle
8:55 AM 69.8 °F - 64.4 °F 83% 30.18 in 10.0 mi South 8.1 mph - N/A   Mostly Cloudy
9:15 AM 69.8 °F - 64.4 °F 83% 30.18 in 10.0 mi South 8.1 mph - N/A   Light Drizzle
9:35 AM 69.8 °F - 64.4 °F 83% 30.18 in 10.0 mi South 10.4 mph - N/A   Light Drizzle
9:55 AM 71.6 °F - 64.4 °F 78% 30.18 in 10.0 mi SSW 12.7 mph 16.1 mph N/A   Light Drizzle
10:15 AM 73.4 °F - 64.4 °F 73% 30.18 in 10.0 mi SSW 10.4 mph - N/A   Mostly Cloudy
10:35 AM 73.4 °F - 64.4 °F 73% 30.18 in 10.0 mi South 11.5 mph 17.3 mph N/A   Mostly Cloudy
10:55 AM 75.2 °F - 66.2 °F 73% 30.17 in 9.0 mi South 9.2 mph - N/A   Light Drizzle
11:15 AM 75.2 °F - 64.4 °F 69% 30.16 in 10.0 mi South 11.5 mph - N/A   Mostly Cloudy
11:35 AM 77.0 °F - 64.4 °F 65% 30.15 in 10.0 mi South 13.8 mph 20.7 mph N/A   Light Drizzle
11:55 AM 77.0 °F - 66.2 °F 69% 30.14 in 10.0 mi SSE 8.1 mph - N/A   Light Drizzle
12:15 PM 77.0 °F - 64.4 °F 65% 30.12 in 10.0 mi South 16.1 mph 21.9 mph N/A   Light Drizzle
12:35 PM 78.8 °F - 64.4 °F 61% 30.11 in 10.0 mi South 16.1 mph 20.7 mph N/A   Light Drizzle
12:55 PM 78.8 °F - 64.4 °F 61% 30.10 in 10.0 mi SSW 11.5 mph - N/A   Light Drizzle
1:15 PM 78.8 °F - 64.4 °F 61% 30.09 in 10.0 mi South 4.6 mph - N/A   Scattered Clouds
1:35 PM 80.6 °F 81.8 °F 62.6 °F 54% 30.08 in 10.0 mi South 10.4 mph 17.3 mph N/A   Light Drizzle
1:55 PM 78.8 °F - 62.6 °F 57% 30.08 in 10.0 mi South 5.8 mph - N/A   Mostly Cloudy
2:15 PM 80.6 °F 81.8 °F 62.6 °F 54% 30.07 in 10.0 mi South 16.1 mph 19.6 mph N/A   Light Drizzle
2:35 PM 80.6 °F 81.8 °F 62.6 °F 54% 30.06 in 10.0 mi South 11.5 mph 21.9 mph N/A   Partly Cloudy
2:55 PM 80.6 °F 81.8 °F 62.6 °F 54% 30.06 in 10.0 mi South 11.5 mph 18.4 mph N/A   Light Drizzle
3:15 PM 80.6 °F 81.5 °F 60.8 °F 51% 30.06 in 10.0 mi South 12.7 mph 21.9 mph N/A   Light Drizzle
3:35 PM 80.6 °F 81.8 °F 62.6 °F 54% 30.06 in 10.0 mi South 12.7 mph 17.3 mph N/A   Light Drizzle
3:55 PM 78.8 °F - 62.6 °F 57% 30.06 in 10.0 mi South 6.9 mph - N/A   Light Drizzle
4:15 PM 78.8 °F - 62.6 °F 57% 30.06 in 10.0 mi South 4.6 mph 17.3 mph N/A   Light Drizzle
4:35 PM 78.8 °F - 62.6 °F 57% 30.06 in 10.0 mi Calm Calm - N/A   Clear
4:55 PM 77.0 °F - 62.6 °F 61% 30.07 in 10.0 mi SSE 8.1 mph - N/A   Light Drizzle
5:15 PM 75.2 °F - 62.6 °F 65% 30.07 in 10.0 mi South 9.2 mph - N/A   Light Drizzle
5:35 PM 75.2 °F - 62.6 °F 65% 30.08 in 10.0 mi SSE 6.9 mph - N/A   Light Drizzle
5:55 PM 73.4 °F - 62.6 °F 69% 30.08 in 10.0 mi SSE 6.9 mph - N/A   Light Drizzle
6:15 PM 73.4 °F - 62.6 °F 69% 30.08 in 10.0 mi SSE 8.1 mph - N/A   Light Drizzle
6:35 PM 73.4 °F - 62.6 °F 69% 30.09 in 10.0 mi SSE 6.9 mph 18.4 mph N/A   Partly Cloudy
6:55 PM 73.4 °F - 62.6 °F 69% 30.09 in 10.0 mi SSE 6.9 mph - N/A   Partly Cloudy
7:15 PM 73.4 °F - 64.4 °F 73% 30.10 in 10.0 mi Calm Calm - N/A   Light Drizzle
7:35 PM 71.6 °F - 64.4 °F 78% 30.10 in 10.0 mi SSE 10.4 mph 17.3 mph N/A   Partly Cloudy
7:55 PM 71.6 °F - 64.4 °F 78% 30.11 in 10.0 mi SSE 4.6 mph - N/A   Clear
8:15 PM 71.6 °F - 64.4 °F 78% 30.10 in 10.0 mi SSE 3.5 mph - N/A   Light Drizzle
8:35 PM 69.8 °F - 64.4 °F 83% 30.10 in 10.0 mi South 4.6 mph 18.4 mph N/A   Light Drizzle
8:55 PM 69.8 °F - 64.4 °F 83% 30.11 in 10.0 mi SSE 9.2 mph - N/A   Light Drizzle
9:15 PM 69.8 °F - 64.4 °F 83% 30.11 in 10.0 mi South 10.4 mph 17.3 mph N/A   Clear
9:35 PM 69.8 °F - 64.4 °F 83% 30.11 in 10.0 mi South 9.2 mph 17.3 mph N/A   Clear
9:55 PM 68.0 °F - 64.4 °F 88% 30.11 in 10.0 mi South 6.9 mph - N/A   Clear
10:35 PM 68.0 °F - 64.4 °F 88% 30.13 in 10.0 mi SSE 4.6 mph - N/A   Light Drizzle
11:15 PM 66.2 °F - 64.4 °F 94% 30.12 in 10.0 mi South 3.5 mph - N/A   Clear
11:55 PM 66.2 °F - 64.4 °F 94% 30.13 in 9.0 mi SSE 4.6 mph - N/A   Partly Cloudy